Regional Weather Roundup
Issued by NWS

Home | Current Version | Previous Version | Text Only | Print | Product List | Glossary On
Versions: 1 2 3 4 5 6 7 8 9 10 11 12 13 14 15 16 17 18 19 20 21 22 23 24 25 26 27 28 29 30 31 32 33 34 35 36 37 38 39 40 41 42 43 44 45 46 47 48 49 50
371
ASUS43 KDTX 081601
RWRMI
MICHIGAN HOURLY REGIONAL WEATHER ROUNDUP
NATIONAL WEATHER SERVICE DETROIT/PONTIAC MI
1100 AM EST MON FEB 08 2016

NOTE: "FAIR" INDICATES FEW OR NO CLOUDS BELOW 12,000 FEET WITH NO
SIGNIFICANT WEATHER AND/OR OBSTRUCTION TO VISIBILITY.

MIZ047>049-052>055-059>063-066>070-074>076-081>083-081700-
SOUTHEAST LOWER MICHIGAN

CITY           SKY/WX    TMP DP  RH WIND       PRES   REMARKS
ADRIAN         CLOUDY    35  29  78 NW7       29.61F WCI  29
ALMA           MOSUNNY   37  33  87 SW7       29.61F WCI  31
ANN ARBOR      CLOUDY    37  30  75 NW8       29.60S WCI  31
BAD AXE        CLOUDY    37  33  83 W5        29.61S WCI  34
CARO           CLOUDY    37  32  81 W3        29.60F
DETROIT CITY   CLOUDY    39  30  70 NW6       29.60F WCI  35
DETROIT        CLOUDY    39  30  70 NW6       29.61S WCI  35
FLINT          PTSUNNY  N/A N/A N/A W9        29.61F
GROSSE ILE     PTSUNNY   37  30  75 CALM      29.59S
HILLSDALE      CLOUDY    34  29  82 W7        29.60S WCI  28
HOWELL         CLOUDY    36  32  84 W6        29.60S WCI  32

CITY           SKY/WX    TMP DP  RH WIND       PRES   REMARKS
JACKSON        CLOUDY    35  28  75 W8        29.61S WCI  29
LAMBERTVILLE   CLOUDY    37  31  79 W6        29.62S WCI  32
LANSING        CLOUDY    35  29  78 W6        29.62S WCI  30
LAPEER         CLOUDY    36  31  83 NW3       29.60F
MASON          CLOUDY    34  30  85 W6        29.61S WCI  29
MONROE         CLOUDY    38  32  78 W9        29.60F WCI  31
MT. CLEMENS    CLOUDY    39  33  79 NW6       29.58F
PONTIAC        CLOUDY    36  29  75 NW5       29.58F WCI  32
PORT HOPE        N/A     38  32  79 SW7       29.59S WCI  33
PORT HURON     CLOUDY    37  36  93 NW3       29.60F
TRI CITIES     MOSUNNY   38  31  76 SW6       29.61F WCI  33
MIDLAND        FAIR      37  30  75 W3        29.60F
TROY           CLOUDY    39  30  70 W7        29.61F WCI  34
SAGINAW HB     MOSUNNY   37  32  81 W7        29.60F WCI  32
$$
MIZ043>046-050>051-056>058-064>065-071>073-077>080-081700-
SOUTHWEST LOWER MICHIGAN

CITY           SKY/WX    TMP DP  RH WIND       PRES   REMARKS
BATTLE CREEK   SUNNY     35  28  75 SW3       29.62S
BENTON HARBOR  CLOUDY    34  31  88 SW7       29.63S WCI  28
BIG RAPIDS     PTSUNNY   35  30  82 W7        29.60R WCI  29
COLDWATER      MOSUNNY   36  31  81 W6        29.62S WCI  31
FREMONT        CLOUDY    34  32  93 CALM      29.61R
HOLLAND        CLOUDY    34  31  88 S6        29.62S WCI  29
GRAND RAPIDS   CLOUDY    36  31  82 SW7       29.62R WCI  30
IONIA          FAIR      37  29  73 SW6       29.60S WCI  32
KALAMAZOO      CLOUDY    34  28  79 W6        29.62S WCI  29
LUDINGTON      CLOUDY    35  30  82 S7        29.61S WCI  29
MARSHALL       MOSUNNY   35  30  80 NW5       29.61S WCI  31
MOUNT PLEASANT MOSUNNY   37  30  75 W5        29.60S WCI  33
MUSKEGON       PTSUNNY   39  30  70 S5        29.62R
SOUTH HAVEN    CLOUDY    33  31  92 SW3       29.63S
$$
MIZ016>042-081700-
NORTHERN LOWER MICHIGAN

CITY           SKY/WX    TMP DP  RH WIND       PRES   REMARKS
ALPENA         PTSUNNY   35  30  82 CALM      29.61R
BEAVER ISLAND  CLOUDY    35  34  96 CALM      29.60R FOG
BELLAIRE       SUNNY     34  33  94 SW3       29.61R
CADILLAC       PTSUNNY   35  30  83 SW3       29.57S
CHARLEVOIX     MOSUNNY   34  32  92 E6        29.63R WCI  29
FRANKFORT      CLOUDY    36  31  84 CALM      29.60S
GAYLORD        FOG       30  28  92 SW3       29.58R VSB<1/4
GRAYLING       FOG      N/A N/A N/A CALM      29.59S VSB 1/4
HARBOR SPRINGS PTSUNNY   35  30  83 CALM      29.61R
HOUGHTON LAKE  PTSUNNY   32  30  92 CALM      29.59R FOG
MANISTEE       CLOUDY    36  28  75 S5        29.61S WCI  32
OSCODA         CLOUDY    35  32  90 E3        29.60S
PELLSTON       PTSUNNY   30  29  96 CALM      29.61R FOG
ROGERS CITY    MOSUNNY   38  31  75 CALM      29.61R
TRAVERSE CITY  PTSUNNY   36  30  79 CALM      29.59R
$$
MIZ007>008-015-081700-
EASTERN UPPER MICHIGAN

CITY           SKY/WX    TMP DP  RH WIND       PRES   REMARKS
KINROSS        CLOUDY    37  37 100 CALM      29.60S
MACKINAC ISLAN SUNNY     35  33  92 CALM      29.60R
NEWBERRY       CLOUDY    33  33  96 CALM      29.59R FOG
S. S. MARIE    CLOUDY    34  32  92 E5        29.60S FOG     WCI  30
$$
MIZ004>006-011>014-085-081700-
CENTRAL UPPER MICHIGAN

CITY           SKY/WX    TMP DP  RH WIND       PRES   REMARKS
MANISTIQUE     FLURRIES  32  29  89 NW10      29.61R WCI  24
ESCANABA       CLOUDY    30  27  86 N10       29.63R WCI  21
MENOMINEE      CLOUDY    34  30  86 N8        29.61R WCI  27
SAWYER-GWINN   CLOUDY    21  18  86 N15       29.63R WCI   8
$$
MIZ001>003-009>011-084-081700-
WESTERN UPPER MICHIGAN

CITY           SKY/WX    TMP DP  RH WIND       PRES   REMARKS
IRON MOUNTAIN  LGT SNOW  24  19  81 NW14      29.63R WCI  12
HOUGHTON       LGT SNOW  15   9  76 NW14G22   29.70R VSB 1   WCI   0
COPPER HARBOR    N/A     20  17  88 NE22      29.71R WCI   3
IRONWOOD       CLOUDY    18  16  93 NW15      29.73R VSB 1   WCI   3
$$

ABBREVIATIONS USED IN REMARKS
   TC - TEMPERATURE IN CELSIUS
  WCI - WIND CHILL INDEX
   HX - HEAT INDEX
  VSB - VISIBILITY





USA.gov is the U.S. government's official web portal to all federal, state and local government web resources and services.